Time,TemperatureF,DewpointF,PressureIn,WindDirection,WindDirectionDegrees,WindSpeedMPH,WindSpeedGustMPH,Humidity,HourlyPrecipIn,Conditions,Clouds,dailyrainin,SolarRadiationWatts/m^2,SoftwareType,DateUTC
2013-09-06 00:21:00,54.0,47.0,-100.00,NNW,345,4.0,7.0,76,0.00,,,0.00,1.000000,,2013-09-06 06:21:00,
2013-09-06 00:32:00,54.0,47.0,-100.00,NNW,345,4.0,7.0,76,0.00,,,0.00,1.000000,,2013-09-06 06:32:00,
2013-09-06 00:42:00,54.0,47.0,-100.00,NNW,345,4.0,7.0,76,0.00,,,0.00,1.000000,,2013-09-06 06:42:00,
2013-09-06 00:52:00,54.0,47.0,-100.00,NNW,345,4.0,7.0,76,0.00,,,0.00,1.000000,,2013-09-06 06:52:00,
2013-09-06 01:23:00,52.0,47.0,-100.00,SSW,209,2.0,7.0,82,0.00,,,0.00,1.000000,,2013-09-06 07:23:00,
2013-09-06 01:32:00,52.0,47.0,-100.00,SSW,209,2.0,7.0,82,0.00,,,0.00,1.000000,,2013-09-06 07:32:00,
2013-09-06 01:42:00,52.0,47.0,-100.00,SSW,209,2.0,7.0,82,0.00,,,0.00,1.000000,,2013-09-06 07:42:00,
2013-09-06 01:52:00,52.0,47.0,-100.00,SSW,209,2.0,7.0,82,0.00,,,0.00,1.000000,,2013-09-06 07:52:00,
2013-09-06 02:22:00,51.0,47.0,-100.00,WNW,301,2.0,3.0,85,0.00,,,0.00,1.000000,,2013-09-06 08:22:00,
2013-09-06 02:32:00,51.0,47.0,-100.00,WNW,301,2.0,3.0,85,0.00,,,0.00,1.000000,,2013-09-06 08:32:00,
2013-09-06 02:42:00,51.0,47.0,-100.00,WNW,301,2.0,3.0,85,0.00,,,0.00,1.000000,,2013-09-06 08:42:00,
2013-09-06 02:52:00,51.0,47.0,-100.00,WNW,301,2.0,3.0,85,0.00,,,0.00,1.000000,,2013-09-06 08:52:00,
2013-09-06 03:22:00,49.0,46.0,-100.00,NW,311,2.0,5.0,89,0.00,,,0.00,1.000000,,2013-09-06 09:22:00,
2013-09-06 03:33:00,49.0,46.0,-100.00,NW,311,2.0,5.0,89,0.00,,,0.00,1.000000,,2013-09-06 09:33:00,
2013-09-06 03:43:00,49.0,46.0,-100.00,NW,311,2.0,5.0,89,0.00,,,0.00,1.000000,,2013-09-06 09:43:00,
2013-09-06 03:53:00,49.0,46.0,-100.00,NW,311,2.0,5.0,89,0.00,,,0.00,1.000000,,2013-09-06 09:53:00,
2013-09-06 04:23:00,48.0,45.0,-100.00,NW,313,2.0,4.0,91,0.00,,,0.00,1.000000,,2013-09-06 10:23:00,
2013-09-06 04:32:00,48.0,45.0,-100.00,NW,313,2.0,4.0,91,0.00,,,0.00,1.000000,,2013-09-06 10:32:00,
2013-09-06 04:42:00,48.0,45.0,-100.00,NW,313,2.0,4.0,91,0.00,,,0.00,1.000000,,2013-09-06 10:42:00,
2013-09-06 04:53:00,48.0,45.0,-100.00,NW,313,2.0,4.0,91,0.00,,,0.00,1.000000,,2013-09-06 10:53:00,
2013-09-06 05:22:00,47.0,45.0,-100.00,NW,308,2.0,3.0,93,0.00,,,0.00,1.000000,,2013-09-06 11:22:00,
2013-09-06 05:33:00,47.0,45.0,-100.00,NW,308,2.0,3.0,93,0.00,,,0.00,1.000000,,2013-09-06 11:33:00,
2013-09-06 05:42:00,47.0,45.0,-100.00,NW,308,2.0,3.0,93,0.00,,,0.00,1.000000,,2013-09-06 11:42:00,
2013-09-06 05:52:00,47.0,45.0,-100.00,NW,308,2.0,3.0,93,0.00,,,0.00,1.000000,,2013-09-06 11:52:00,
2013-09-06 06:21:00,45.0,43.0,-100.00,NW,316,1.0,2.0,92,0.00,,,0.00,1.000000,,2013-09-06 12:21:00,
2013-09-06 06:32:00,45.0,43.0,-100.00,NW,316,1.0,2.0,92,0.00,,,0.00,1.000000,,2013-09-06 12:32:00,
2013-09-06 06:42:00,45.0,43.0,-100.00,NW,316,1.0,2.0,92,0.00,,,0.00,1.000000,,2013-09-06 12:42:00,
2013-09-06 06:52:00,45.0,43.0,-100.00,NW,316,1.0,2.0,92,0.00,,,0.00,1.000000,,2013-09-06 12:52:00,
2013-09-06 07:22:00,46.0,44.0,-100.00,NNW,342,2.0,4.0,94,0.00,,,0.00,1.000000,,2013-09-06 13:22:00,
2013-09-06 07:32:00,46.0,44.0,-100.00,NNW,342,2.0,4.0,94,0.00,,,0.00,1.000000,,2013-09-06 13:32:00,
2013-09-06 07:42:00,46.0,44.0,-100.00,NNW,342,2.0,4.0,94,0.00,,,0.00,1.000000,,2013-09-06 13:42:00,
2013-09-06 07:52:00,46.0,44.0,-100.00,NNW,342,2.0,4.0,94,0.00,,,0.00,1.000000,,2013-09-06 13:52:00,
2013-09-06 08:22:00,54.0,48.0,-100.00,NNE,16,2.0,3.0,79,0.00,,,0.00,75.000000,,2013-09-06 14:22:00,
2013-09-06 08:32:00,54.0,48.0,-100.00,NNE,16,2.0,3.0,79,0.00,,,0.00,75.000000,,2013-09-06 14:32:00,
2013-09-06 08:42:00,54.0,48.0,-100.00,NNE,16,2.0,3.0,79,0.00,,,0.00,75.000000,,2013-09-06 14:42:00,
2013-09-06 08:52:00,54.0,48.0,-100.00,NNE,16,2.0,3.0,79,0.00,,,0.00,75.000000,,2013-09-06 14:52:00,
2013-09-06 09:22:00,59.0,49.0,-100.00,SSW,195,4.0,6.0,69,0.00,,,0.00,234.000000,,2013-09-06 15:22:00,
2013-09-06 09:34:00,59.0,49.0,-100.00,SSW,195,4.0,6.0,69,0.00,,,0.00,234.000000,,2013-09-06 15:34:00,
2013-09-06 09:43:00,59.0,49.0,-100.00,SSW,195,4.0,6.0,69,0.00,,,0.00,234.000000,,2013-09-06 15:43:00,
2013-09-06 09:53:00,59.0,49.0,-100.00,SSW,195,4.0,6.0,69,0.00,,,0.00,234.000000,,2013-09-06 15:53:00,
2013-09-06 10:24:00,64.0,48.0,-100.00,SSE,162,4.0,6.0,57,0.00,,,0.00,291.000000,,2013-09-06 16:24:00,
2013-09-06 10:33:00,64.0,48.0,-100.00,SSE,162,4.0,6.0,57,0.00,,,0.00,291.000000,,2013-09-06 16:33:00,
2013-09-06 10:42:00,64.0,48.0,-100.00,SSE,162,4.0,6.0,57,0.00,,,0.00,291.000000,,2013-09-06 16:42:00,
2013-09-06 10:53:00,64.0,48.0,-100.00,SSE,162,4.0,6.0,57,0.00,,,0.00,291.000000,,2013-09-06 16:53:00,
2013-09-06 11:24:00,70.0,50.0,-100.00,South,186,6.0,10.0,49,0.00,,,0.00,541.000000,,2013-09-06 17:24:00,
2013-09-06 11:34:00,70.0,50.0,-100.00,South,186,6.0,10.0,49,0.00,,,0.00,541.000000,,2013-09-06 17:34:00,
2013-09-06 11:43:00,70.0,50.0,-100.00,South,186,6.0,10.0,49,0.00,,,0.00,541.000000,,2013-09-06 17:43:00,
2013-09-06 11:53:00,70.0,50.0,-100.00,South,186,6.0,10.0,49,0.00,,,0.00,541.000000,,2013-09-06 17:53:00,
2013-09-06 12:22:00,76.0,50.0,-100.00,South,178,11.0,15.0,40,0.00,,,0.00,693.000000,,2013-09-06 18:22:00,
2013-09-06 12:32:00,76.0,50.0,-100.00,South,178,11.0,15.0,40,0.00,,,0.00,693.000000,,2013-09-06 18:32:00,
2013-09-06 12:42:00,76.0,50.0,-100.00,South,178,11.0,15.0,40,0.00,,,0.00,693.000000,,2013-09-06 18:42:00,
2013-09-06 12:52:00,76.0,50.0,-100.00,South,178,11.0,15.0,40,0.00,,,0.00,693.000000,,2013-09-06 18:52:00,
2013-09-06 13:22:00,79.0,49.0,-100.00,SSW,203,12.0,18.0,35,0.00,,,0.00,761.000000,,2013-09-06 19:22:00,
2013-09-06 13:32:00,79.0,49.0,-100.00,SSW,203,12.0,18.0,35,0.00,,,0.00,761.000000,,2013-09-06 19:32:00,
2013-09-06 13:42:00,79.0,49.0,-100.00,SSW,203,12.0,18.0,35,0.00,,,0.00,761.000000,,2013-09-06 19:42:00,
2013-09-06 13:52:00,79.0,49.0,-100.00,SSW,203,12.0,18.0,35,0.00,,,0.00,761.000000,,2013-09-06 19:52:00,
2013-09-06 14:23:00,82.0,45.0,-100.00,SW,216,12.0,23.0,27,0.00,,,0.00,791.000000,,2013-09-06 20:23:00,
2013-09-06 14:32:00,82.0,45.0,-100.00,SW,216,12.0,23.0,27,0.00,,,0.00,791.000000,,2013-09-06 20:32:00,
2013-09-06 14:42:00,82.0,45.0,-100.00,SW,216,12.0,23.0,27,0.00,,,0.00,791.000000,,2013-09-06 20:42:00,
2013-09-06 14:52:00,82.0,45.0,-100.00,SW,216,12.0,23.0,27,0.00,,,0.00,791.000000,,2013-09-06 20:52:00,
2013-09-06 15:22:00,82.0,45.0,-100.00,South,178,13.0,23.0,27,0.00,,,0.00,814.000000,,2013-09-06 21:22:00,
2013-09-06 15:34:00,82.0,45.0,-100.00,South,178,13.0,23.0,27,0.00,,,0.00,814.000000,,2013-09-06 21:34:00,
2013-09-06 15:43:00,82.0,45.0,-100.00,South,178,13.0,23.0,27,0.00,,,0.00,814.000000,,2013-09-06 21:43:00,
2013-09-06 15:54:00,82.0,45.0,-100.00,South,178,13.0,23.0,27,0.00,,,0.00,814.000000,,2013-09-06 21:54:00,
2013-09-06 16:44:00,83.0,46.0,-100.00,SSW,198,8.0,22.0,27,0.00,,,0.00,572.000000,,2013-09-06 22:44:00,
2013-09-06 17:23:00,66.0,50.0,-100.00,West,280,11.0,24.0,56,-99.99,,,0.00,74.000000,,2013-09-06 23:23:00,
2013-09-06 17:33:00,66.0,50.0,-100.00,West,280,11.0,24.0,56,-99.99,,,0.00,74.000000,,2013-09-06 23:33:00,
2013-09-06 17:42:00,66.0,50.0,-100.00,West,280,11.0,24.0,56,-99.99,,,0.00,74.000000,,2013-09-06 23:42:00,
2013-09-06 17:52:00,66.0,50.0,-100.00,West,280,11.0,24.0,56,-99.99,,,0.00,74.000000,,2013-09-06 23:52:00,
2013-09-06 18:22:00,61.0,52.0,-100.00,SW,229,3.0,26.0,73,0.01,,,0.01,68.000000,,2013-09-07 00:22:00,
2013-09-06 18:32:00,61.0,52.0,-100.00,SW,229,3.0,26.0,73,0.01,,,0.01,68.000000,,2013-09-07 00:32:00,
2013-09-06 18:42:00,61.0,52.0,-100.00,SW,229,3.0,26.0,73,0.01,,,0.01,68.000000,,2013-09-07 00:42:00,
2013-09-06 18:52:00,61.0,52.0,-100.00,SW,229,3.0,26.0,73,0.01,,,0.01,68.000000,,2013-09-07 00:52:00,
2013-09-06 19:21:00,60.0,52.0,-100.00,North,9,11.0,17.0,75,0.00,,,0.01,115.000000,,2013-09-07 01:21:00,
2013-09-06 19:32:00,60.0,52.0,-100.00,North,9,11.0,17.0,75,0.00,,,0.01,115.000000,,2013-09-07 01:32:00,
2013-09-06 19:42:00,60.0,52.0,-100.00,North,9,11.0,17.0,75,0.00,,,0.01,115.000000,,2013-09-07 01:42:00,
2013-09-06 19:53:00,60.0,52.0,-100.00,North,9,11.0,17.0,75,0.00,,,0.01,115.000000,,2013-09-07 01:53:00,
2013-09-06 20:23:00,59.0,52.0,-100.00,NW,326,6.0,18.0,79,0.00,,,-99.99,14.000000,,2013-09-07 02:23:00,
2013-09-06 20:32:00,59.0,52.0,-100.00,NW,326,6.0,18.0,79,0.00,,,-99.99,14.000000,,2013-09-07 02:32:00,
2013-09-06 20:42:00,59.0,52.0,-100.00,NW,326,6.0,18.0,79,0.00,,,-99.99,14.000000,,2013-09-07 02:42:00,
2013-09-06 20:52:00,59.0,52.0,-100.00,NW,326,6.0,18.0,79,0.00,,,-99.99,14.000000,,2013-09-07 02:52:00,
2013-09-06 21:23:00,58.0,52.0,-100.00,NE,36,6.0,11.0,79,0.00,,,0.01,1.000000,,2013-09-07 03:23:00,
2013-09-06 21:34:00,58.0,52.0,-100.00,NE,36,6.0,11.0,79,0.00,,,0.01,1.000000,,2013-09-07 03:34:00,
2013-09-06 21:44:00,58.0,52.0,-100.00,NE,36,6.0,11.0,79,0.00,,,0.01,1.000000,,2013-09-07 03:44:00,
2013-09-06 21:54:00,58.0,52.0,-100.00,NE,36,6.0,11.0,79,0.00,,,0.01,1.000000,,2013-09-07 03:54:00,
2013-09-06 22:23:00,58.0,54.0,-100.00,SSW,201,5.0,7.0,86,0.00,,,0.01,1.000000,,2013-09-07 04:23:00,
2013-09-06 22:34:00,58.0,54.0,-100.00,SSW,201,5.0,7.0,86,0.00,,,0.01,1.000000,,2013-09-07 04:34:00,
2013-09-06 22:43:00,58.0,54.0,-100.00,SSW,201,5.0,7.0,86,0.00,,,0.01,1.000000,,2013-09-07 04:43:00,
2013-09-06 22:54:00,58.0,54.0,-100.00,SSW,201,5.0,7.0,86,0.00,,,0.01,1.000000,,2013-09-07 04:54:00,
2013-09-06 23:23:00,56.0,55.0,-100.00,West,272,6.0,16.0,98,0.03,,,0.04,1.000000,,2013-09-07 05:23:00,
2013-09-06 23:33:00,56.0,55.0,-100.00,West,272,6.0,16.0,98,0.03,,,0.04,1.000000,,2013-09-07 05:33:00,
2013-09-06 23:42:00,56.0,55.0,-100.00,West,272,6.0,16.0,98,0.03,,,0.04,1.000000,,2013-09-07 05:42:00,
2013-09-06 23:52:00,56.0,55.0,-100.00,West,272,6.0,16.0,98,0.03,,,0.04,1.000000,,2013-09-07 05:52:00,